| time (UTC) | temp C | wind direction | speed KPH | gust KPH | rain 1hr cm | rain 24hr cm | rain mn cm | humidity % | barometer mb |
| 20260906161444 | 23 | 139 | 0.0 | 8.0 | 0.00 | 0.00 | 0.00 | 75 | 1021.5 |
| 20260906160943 | 22 | 95 | 6.4 | 12.9 | 0.00 | 0.00 | 0.00 | 77 | 1021.5 |
| 20260906160436 | 22 | 137 | 9.7 | 16.1 | 0.00 | 0.00 | 0.00 | 78 | 1021.8 |
| 20260906155934 | 22 | 154 | 12.9 | 14.5 | 0.00 | 0.00 | 0.00 | 79 | 1021.8 |
| 20260906155428 | 22 | 101 | 4.8 | 8.0 | 0.00 | 0.00 | 0.00 | 80 | 1021.7 |
| 20260906154924 | 22 | 135 | 8.0 | 11.3 | 0.00 | 0.00 | 0.00 | 81 | 1021.6 |
| 20260906154419 | 22 | 109 | 9.7 | 11.3 | 0.00 | 0.00 | 0.00 | 83 | 1021.8 |
| 20260906153918 | 22 | 127 | 4.8 | 8.0 | 0.00 | 0.00 | 0.00 | 81 | 1021.8 |
| 20260906153416 | 21 | 124 | 3.2 | 6.4 | 0.00 | 0.00 | 0.00 | 84 | 1021.6 |
| 20260906152912 | 21 | 138 | 12.9 | 17.7 | 0.00 | 0.00 | 0.00 | 82 | 1021.7 |
| 20260906152407 | 22 | 113 | 4.8 | 6.4 | 0.00 | 0.00 | 0.00 | 82 | 1021.8 |
| 20260906151906 | 21 | 137 | 6.4 | 11.3 | 0.00 | 0.00 | 0.00 | 84 | 1021.9 |
| 20260906151402 | 22 | 134 | 14.5 | 16.1 | 0.00 | 0.00 | 0.00 | 81 | 1021.8 |
| 20260906150857 | 22 | 121 | 3.2 | 8.0 | 0.00 | 0.00 | 0.00 | 83 | 1021.8 |
| 20260906150352 | 21 | 139 | 8.0 | 14.5 | 0.00 | 0.00 | 0.00 | 85 | 1021.7 |
| 20260906145852 | 22 | 71 | 0.0 | 4.8 | 0.00 | 0.00 | 0.00 | 85 | 1021.6 |
| 20260906145350 | 21 | 139 | 8.0 | 12.9 | 0.00 | 0.00 | 0.00 | 83 | 1021.5 |
| 20260906144845 | 22 | 74 | 12.9 | 12.9 | 0.00 | 0.00 | 0.00 | 84 | 1021.6 |
| 20260906144341 | 21 | 134 | 6.4 | 12.9 | 0.00 | 0.00 | 0.00 | 85 | 1021.5 |
| 20260906143841 | 21 | 124 | 4.8 | 9.7 | 0.00 | 0.00 | 0.00 | 84 | 1021.4 |
| 20260906143337 | 21 | 133 | 4.8 | 9.7 | 0.00 | 0.00 | 0.00 | 86 | 1021.4 |
| 20260906142832 | 21 | 138 | 12.9 | 14.5 | 0.00 | 0.00 | 0.00 | 86 | 1021.5 |
| 20260906142326 | 21 | 146 | 6.4 | 11.3 | 0.00 | 0.00 | 0.00 | 87 | 1021.5 |
| 20260906141821 | 21 | 113 | 9.7 | 9.7 | 0.00 | 0.00 | 0.00 | 86 | 1021.6 |
| 20260906141316 | 21 | 129 | 4.8 | 14.5 | 0.00 | 0.00 | 0.00 | 87 | 1021.6 |
| 20260906140814 | 21 | 134 | 6.4 | 14.5 | 0.00 | 0.00 | 0.00 | 88 | 1021.8 |
| 20260906140309 | 21 | 132 | 3.2 | 11.3 | 0.00 | 0.00 | 0.00 | 88 | 1021.6 |
| 20260906135807 | 20 | 156 | 8.0 | 9.7 | 0.00 | 0.00 | 0.00 | 89 | 1021.8 |
| 20260906135305 | 20 | 146 | 9.7 | 11.3 | 0.00 | 0.00 | 0.00 | 90 | 1021.8 |
| 20260906134757 | 20 | 132 | 6.4 | 8.0 | 0.00 | 0.00 | 0.00 | 91 | 1021.9 |
| 20260906134252 | 20 | 144 | 4.8 | 9.7 | 0.00 | 0.00 | 0.00 | 91 | 1021.7 |
| 20260906133748 | 20 | 144 | 6.4 | 9.7 | 0.00 | 0.00 | 0.00 | 91 | 1021.6 |
| 20260906133244 | 20 | 137 | 9.7 | 9.7 | 0.00 | 0.00 | 0.00 | 92 | 1021.7 |
| 20260906132739 | 20 | 147 | 6.4 | 11.3 | 0.00 | 0.00 | 0.00 | 93 | 1021.6 |
| 20260906132234 | 19 | 139 | 8.0 | 8.0 | 0.00 | 0.00 | 0.00 | 94 | 1021.5 |
| 20260906131730 | 19 | 131 | 4.8 | 8.0 | 0.00 | 0.00 | 0.00 | 95 | 1021.5 |
| 20260906131225 | 18 | 97 | 4.8 | 8.0 | 0.00 | 0.00 | 0.00 | 95 | 1021.3 |
| 20260906130720 | 18 | 146 | 4.8 | 9.7 | 0.00 | 0.00 | 0.00 | 95 | 1021.2 |
| 20260906130215 | 18 | 127 | 6.4 | 9.7 | 0.00 | 0.00 | 0.00 | 96 | 1021.3 |
| 20260906125714 | 18 | 148 | 9.7 | 9.7 | 0.00 | 0.00 | 0.00 | 96 | 1021.4 |
| 20260906125212 | 17 | 117 | 4.8 | 6.4 | 0.00 | 0.00 | 0.00 | 96 | 1021.6 |
| 20260906124707 | 17 | 123 | 3.2 | 6.4 | 0.00 | 0.00 | 0.00 | 96 | 1021.7 |
| 20260906124203 | 17 | 126 | 0.0 | 3.2 | 0.00 | 0.00 | 0.00 | 97 | 1021.5 |
| 20260906123701 | 17 | 106 | 1.6 | 3.2 | 0.00 | 0.00 | 0.00 | 97 | 1021.3 |
| 20260906123157 | 17 | 90 | 3.2 | 4.8 | 0.00 | 0.00 | 0.00 | 97 | 1021.2 |
| 20260906122656 | 17 | 110 | 3.2 | 6.4 | 0.00 | 0.00 | 0.00 | 97 | 1021.1 |
| 20260906122152 | 16 | 102 | 4.8 | 8.0 | 0.00 | 0.00 | 0.00 | 97 | 1021.2 |
| 20260906121648 | 16 | 101 | 6.4 | 8.0 | 0.00 | 0.00 | 0.00 | 97 | 1021.0 |
| 20260906121144 | 16 | 109 | 4.8 | 4.8 | 0.00 | 0.00 | 0.00 | 97 | 1021.2 |
| 20260906120640 | 16 | 90 | 8.0 | 11.3 | 0.00 | 0.00 | 0.00 | 97 | 1020.8 |
| 20260906120137 | 16 | 71 | 4.8 | 8.0 | 0.00 | 0.00 | 0.00 | 97 | 1021.0 |
| 20260906115637 | 16 | 83 | 6.4 | 9.7 | 0.00 | 0.00 | 0.00 | 97 | 1020.9 |
| 20260906115132 | 16 | 104 | 8.0 | 9.7 | 0.00 | 0.00 | 0.00 | 97 | 1020.8 |
| 20260906114626 | 16 | 101 | 4.8 | 8.0 | 0.00 | 0.00 | 0.00 | 97 | 1020.6 |
| 20260906114121 | 16 | 74 | 6.4 | 9.7 | 0.00 | 0.00 | 0.00 | 97 | 1020.6 |
| 20260906113620 | 16 | 74 | 8.0 | 11.3 | 0.00 | 0.00 | 0.00 | 97 | 1020.4 |
| 20260906113115 | 16 | 90 | 8.0 | 8.0 | 0.00 | 0.00 | 0.00 | 97 | 1020.3 |
| 20260906112614 | 16 | 90 | 6.4 | 11.3 | 0.00 | 0.00 | 0.00 | 97 | 1020.0 |
| 20260906112111 | 16 | 61 | 4.8 | 9.7 | 0.00 | 0.00 | 0.00 | 97 | 1020.1 |
| 20260906111610 | 15 | 86 | 6.4 | 8.0 | 0.00 | 0.00 | 0.00 | 97 | 1020.2 |
| 20260906111106 | 15 | 53 | 0.0 | 6.4 | 0.00 | 0.00 | 0.00 | 97 | 1020.1 |
| 20260906110606 | 15 | 68 | 6.4 | 8.0 | 0.00 | 0.00 | 0.00 | 97 | 1020.2 |
| 20260906110100 | 15 | 82 | 3.2 | 8.0 | 0.00 | 0.00 | 0.00 | 96 | 1019.9 |
| 20260906105554 | 15 | 69 | 0.0 | 4.8 | 0.00 | 0.00 | 0.00 | 96 | 1020.1 |
| 20260906105051 | 15 | 66 | 3.2 | 3.2 | 0.00 | 0.00 | 0.00 | 96 | 1020.0 |
| 20260906104549 | 15 | 40 | 3.2 | 4.8 | 0.00 | 0.00 | 0.00 | 96 | 1020.0 |
| 20260906104044 | 15 | 57 | 0.0 | 3.2 | 0.00 | 0.00 | 0.00 | 96 | 1020.2 |
| 20260906103542 | 15 | 72 | 3.2 | 4.8 | 0.00 | 0.00 | 0.00 | 96 | 1020.1 |
| 20260906103038 | 15 | 49 | 3.2 | 4.8 | 0.00 | 0.00 | 0.00 | 96 | 1019.9 |
| 20260906102537 | 15 | 40 | 0.0 | 3.2 | 0.00 | 0.00 | 0.00 | 96 | 1020.2 |
| 20260906102033 | 15 | 40 | 3.2 | 3.2 | 0.00 | 0.00 | 0.00 | 96 | 1020.0 |
| 20260906101527 | 15 | 60 | 0.0 | 4.8 | 0.00 | 0.00 | 0.00 | 96 | 1020.0 |
| 20260906101022 | 15 | 120 | 1.6 | 3.2 | 0.00 | 0.00 | 0.00 | 96 | 1020.2 |
| 20260906100518 | 15 | 12 | 0.0 | 3.2 | 0.00 | 0.00 | 0.00 | 96 | 1020.1 |
| 20260906100012 | 15 | 40 | 3.2 | 3.2 | 0.00 | 0.00 | 0.00 | 96 | 1020.1 |
| 20260906095507 | 15 | 82 | 3.2 | 4.8 | 0.00 | 0.00 | 0.00 | 96 | 1020.0 |
| 20260906095003 | 15 | 74 | 1.6 | 3.2 | 0.00 | 0.00 | 0.00 | 96 | 1020.1 |
| 20260906094501 | 15 | 99 | 0.0 | 3.2 | 0.00 | 0.00 | 0.00 | 96 | 1020.0 |
| 20260906093957 | 15 | 23 | 0.0 | 3.2 | 0.00 | 0.00 | 0.00 | 96 | 1019.7 |
| 20260906093453 | 15 | 90 | 1.6 | 3.2 | 0.00 | 0.00 | 0.00 | 96 | 1019.9 |
| 20260906092948 | 16 | 29 | 0.0 | 4.8 | 0.00 | 0.00 | 0.00 | 96 | 1020.0 |
| 20260906092448 | 16 | 81 | 0.0 | 1.6 | 0.00 | 0.00 | 0.00 | 96 | 1020.2 |
| 20260906091942 | 15 | 54 | 0.0 | 4.8 | 0.00 | 0.00 | 0.00 | 96 | 1019.9 |
| 20260906091438 | 15 | 26 | 0.0 | 4.8 | 0.00 | 0.00 | 0.00 | 96 | 1019.8 |
| 20260906090934 | 15 | 356 | 0.0 | 4.8 | 0.00 | 0.00 | 0.00 | 96 | 1019.8 |
| 20260906090429 | 15 | 26 | 0.0 | 3.2 | 0.00 | 0.00 | 0.00 | 96 | 1019.8 |
| 20260906085924 | 15 | 24 | 0.0 | 4.8 | 0.00 | 0.00 | 0.00 | 96 | 1019.6 |
| 20260906085423 | 15 | 15 | 0.0 | 3.2 | 0.00 | 0.00 | 0.00 | 96 | 1019.7 |
| 20260906084923 | 15 | 90 | 3.2 | 3.2 | 0.00 | 0.00 | 0.00 | 96 | 1019.7 |
| 20260906084418 | 15 | 20 | 0.0 | 4.8 | 0.00 | 0.00 | 0.00 | 96 | 1019.9 |
| 20260906083917 | 15 | 15 | 0.0 | 3.2 | 0.00 | 0.00 | 0.00 | 96 | 1019.7 |
| 20260906083413 | 15 | 56 | 3.2 | 3.2 | 0.00 | 0.00 | 0.00 | 96 | 1019.7 |
| 20260906082912 | 15 | 334 | 0.0 | 4.8 | 0.00 | 0.00 | 0.00 | 96 | 1019.7 |
| 20260906082407 | 15 | 349 | 3.2 | 4.8 | 0.00 | 0.00 | 0.00 | 95 | 1019.7 |
| 20260906081903 | 15 | 11 | 3.2 | 4.8 | 0.00 | 0.00 | 0.00 | 96 | 1020.0 |
| 20260906081358 | 15 | 29 | 0.0 | 3.2 | 0.00 | 0.00 | 0.00 | 95 | 1019.9 |
| 20260906080854 | 15 | 90 | 0.0 | 4.8 | 0.00 | 0.00 | 0.00 | 95 | 1019.6 |
| 20260906080351 | 16 | 90 | 0.0 | 3.2 | 0.00 | 0.00 | 0.00 | 95 | 1019.6 |
| 20260906075849 | 16 | 29 | 0.0 | 4.8 | 0.00 | 0.00 | 0.00 | 95 | 1019.6 |
| 20260906075344 | 16 | 23 | 0.0 | 4.8 | 0.00 | 0.00 | 0.00 | 95 | 1019.8 |
| 20260906074840 | 16 | 32 | 3.2 | 4.8 | 0.00 | 0.00 | 0.00 | 95 | 1019.9 |
| 20260906074340 | 16 | 75 | 0.0 | 4.8 | 0.00 | 0.00 | 0.00 | 95 | 1019.7 |
| 20260906073838 | 16 | 57 | 3.2 | 6.4 | 0.00 | 0.00 | 0.00 | 95 | 1019.7 |
| 20260906073334 | 16 | 61 | 3.2 | 8.0 | 0.00 | 0.00 | 0.00 | 95 | 1019.8 |
| 20260906072830 | 16 | 342 | 1.6 | 4.8 | 0.00 | 0.00 | 0.00 | 95 | 1019.9 |
| 20260906072326 | 16 | 348 | 0.0 | 6.4 | 0.00 | 0.00 | 0.00 | 96 | 1019.8 |
| 20260906071822 | 16 | 347 | 4.8 | 4.8 | 0.00 | 0.00 | 0.00 | 96 | 1019.8 |
| 20260906071322 | 16 | 345 | 0.0 | 8.0 | 0.00 | 0.00 | 0.00 | 96 | 1019.7 |
| 20260906070818 | 16 | 354 | 1.6 | 4.8 | 0.00 | 0.00 | 0.00 | 96 | 1019.5 |
| 20260906070313 | 16 | 351 | 6.4 | 6.4 | 0.00 | 0.00 | 0.00 | 96 | 1019.6 |
| 20260906065808 | 16 | 353 | 3.2 | 4.8 | 0.00 | 0.00 | 0.00 | 96 | 1019.7 |
| 20260906065305 | 16 | 348 | 3.2 | 4.8 | 0.00 | 0.00 | 0.00 | 96 | 1019.5 |
| 20260906064759 | 16 | 14 | 1.6 | 4.8 | 0.00 | 0.00 | 0.00 | 96 | 1019.6 |
| 20260906064254 | 15 | 0 | 3.2 | 4.8 | 0.00 | 0.00 | 0.00 | 96 | 1019.5 |
| 20260906063749 | 16 | 0 | 1.6 | 4.8 | 0.00 | 0.00 | 0.00 | 95 | 1019.4 |
| 20260906063245 | 15 | 5 | 3.2 | 3.2 | 0.00 | 0.00 | 0.00 | 95 | 1019.6 |
| 20260906062740 | 15 | 4 | 3.2 | 4.8 | 0.00 | 0.00 | 0.00 | 95 | 1019.5 |
| 20260906062239 | 15 | 356 | 3.2 | 3.2 | 0.00 | 0.00 | 0.00 | 95 | 1019.4 |
| 20260906061735 | 15 | 23 | 0.0 | 3.2 | 0.00 | 0.00 | 0.00 | 95 | 1019.5 |
| 20260906061231 | 15 | 29 | 0.0 | 1.6 | 0.00 | 0.00 | 0.00 | 95 | 1019.6 |
| 20260906060726 | 15 | 90 | 0.0 | 0.0 | 0.00 | 0.00 | 0.00 | 95 | 1019.5 |
| 20260906060224 | 15 | 18 | 0.0 | 3.2 | 0.00 | 0.00 | 0.00 | 95 | 1019.6 |
| 20260906055719 | 15 | 0 | 1.6 | 3.2 | 0.00 | 0.00 | 0.00 | 95 | 1019.5 |
| 20260906055214 | 15 | 8 | 0.0 | 1.6 | 0.00 | 0.00 | 0.00 | 95 | 1019.6 |
| 20260906054709 | 15 | 0 | 1.6 | 3.2 | 0.00 | 0.00 | 0.00 | 95 | 1019.5 |
| 20260906054204 | 15 | 23 | 0.0 | 1.6 | 0.00 | 0.00 | 0.00 | 94 | 1019.4 |
| 20260906053701 | 15 | 350 | 3.2 | 3.2 | 0.00 | 0.00 | 0.00 | 95 | 1019.2 |
| 20260906053156 | 16 | 352 | 0.0 | 1.6 | 0.00 | 0.00 | 0.00 | 95 | 1019.5 |
| 20260906052651 | 15 | 180 | 0.0 | 0.0 | 0.00 | 0.00 | 0.00 | 95 | 1019.2 |
| 20260906052148 | 15 | 180 | 0.0 | 0.0 | 0.00 | 0.00 | 0.00 | 95 | 1019.4 |
| 20260906051644 | 15 | 180 | 0.0 | 0.0 | 0.00 | 0.00 | 0.00 | 95 | 1018.9 |
| 20260906051143 | 15 | 180 | 0.0 | 1.6 | 0.00 | 0.00 | 0.00 | 94 | 1018.9 |
| 20260906050639 | 15 | 106 | 0.0 | 0.0 | 0.00 | 0.00 | 0.00 | 94 | 1018.8 |
| 20260906050134 | 15 | 106 | 0.0 | 0.0 | 0.00 | 0.00 | 0.00 | 93 | 1019.0 |
| 20260906045632 | 15 | 94 | 3.2 | 3.2 | 0.00 | 0.03 | 0.03 | 93 | 1018.9 |
| 20260906045127 | 16 | 94 | 4.8 | 4.8 | 0.00 | 0.03 | 0.03 | 94 | 1018.9 |
| 20260906044624 | 16 | 84 | 3.2 | 4.8 | 0.00 | 0.03 | 0.03 | 94 | 1018.9 |
| 20260906044119 | 16 | 99 | 0.0 | 3.2 | 0.00 | 0.03 | 0.03 | 94 | 1018.8 |
| 20260906043615 | 16 | 90 | 3.2 | 3.2 | 0.00 | 0.03 | 0.03 | 94 | 1019.0 |
| 20260906043110 | 16 | 157 | 0.0 | 0.0 | 0.00 | 0.03 | 0.03 | 94 | 1018.9 |
| 20260906042609 | 16 | 345 | 0.0 | 0.0 | 0.00 | 0.03 | 0.03 | 93 | 1018.8 |
| 20260906042104 | 16 | 345 | 0.0 | 0.0 | 0.00 | 0.03 | 0.03 | 93 | 1019.0 |
| 20260906041600 | 16 | 345 | 0.0 | 1.6 | 0.00 | 0.03 | 0.03 | 91 | 1018.8 |
| 20260906041054 | 16 | 114 | 0.0 | 0.0 | 0.00 | 0.03 | 0.03 | 91 | 1018.8 |
| 20260906040550 | 17 | 69 | 1.6 | 4.8 | 0.00 | 0.03 | 0.03 | 91 | 1019.0 |
| 20260906040045 | 17 | 90 | 0.0 | 4.8 | 0.00 | 0.03 | 0.03 | 92 | 1018.6 |
| 20260906035541 | 16 | 83 | 0.0 | 3.2 | 0.00 | 0.03 | 0.03 | 92 | 1018.6 |
| 20260906035037 | 17 | 90 | 1.6 | 4.8 | 0.00 | 0.03 | 0.03 | 92 | 1018.7 |
| 20260906034536 | 16 | 77 | 3.2 | 4.8 | 0.00 | 0.03 | 0.03 | 93 | 1018.5 |
| 20260906034031 | 16 | 81 | 0.0 | 0.0 | 0.00 | 0.03 | 0.03 | 92 | 1018.8 |
| 20260906033526 | 17 | 83 | 1.6 | 3.2 | 0.00 | 0.03 | 0.03 | 93 | 1018.7 |
| 20260906033021 | 16 | 90 | 0.0 | 3.2 | 0.00 | 0.03 | 0.03 | 94 | 1018.5 |
| 20260906032513 | 16 | 114 | 0.0 | 0.0 | 0.00 | 0.03 | 0.03 | 93 | 1018.7 |
| 20260906032012 | 16 | 114 | 0.0 | 0.0 | 0.00 | 0.03 | 0.03 | 93 | 1018.6 |
| 20260906031508 | 16 | 96 | 0.0 | 3.2 | 0.00 | 0.03 | 0.03 | 93 | 1018.6 |
| 20260906030957 | 16 | 111 | 1.6 | 3.2 | 0.00 | 0.03 | 0.03 | 93 | 1018.4 |
| 20260906030452 | 16 | 90 | 0.0 | 1.6 | 0.00 | 0.03 | 0.03 | 92 | 1018.6 |
| 20260906025952 | 17 | 99 | 0.0 | 0.0 | 0.00 | 0.03 | 0.03 | 91 | 1018.7 |
| 20260906025446 | 17 | 99 | 0.0 | 0.0 | 0.00 | 0.03 | 0.03 | 89 | 1018.6 |
| 20260906024944 | 17 | 90 | 0.0 | 0.0 | 0.00 | 0.03 | 0.03 | 87 | 1018.6 |
| 20260906024444 | 18 | 90 | 4.8 | 6.4 | 0.00 | 0.03 | 0.03 | 86 | 1018.4 |
| 20260906023939 | 18 | 90 | 6.4 | 6.4 | 0.00 | 0.03 | 0.03 | 85 | 1018.8 |
| 20260906023435 | 18 | 106 | 3.2 | 4.8 | 0.00 | 0.03 | 0.03 | 85 | 1018.4 |
| 20260906022930 | 18 | 119 | 4.8 | 4.8 | 0.00 | 0.03 | 0.03 | 85 | 1018.7 |
| 20260906022425 | 19 | 97 | 4.8 | 4.8 | 0.00 | 0.03 | 0.03 | 83 | 1018.6 |
| 20260906021920 | 19 | 100 | 4.8 | 6.4 | 0.00 | 0.03 | 0.03 | 83 | 1018.6 |
| 20260906021420 | 19 | 97 | 4.8 | 6.4 | 0.00 | 0.03 | 0.03 | 82 | 1018.4 |
| 20260906020914 | 20 | 99 | 6.4 | 6.4 | 0.00 | 0.03 | 0.03 | 81 | 1018.5 |
| 20260906020409 | 20 | 97 | 4.8 | 8.0 | 0.00 | 0.03 | 0.03 | 82 | 1018.6 |
| 20260906015903 | 19 | 104 | 4.8 | 6.4 | 0.00 | 0.03 | 0.03 | 83 | 1018.5 |
| 20260906015402 | 19 | 101 | 4.8 | 8.0 | 0.00 | 0.03 | 0.03 | 83 | 1018.5 |
| 20260906014857 | 20 | 96 | 6.4 | 8.0 | 0.00 | 0.03 | 0.03 | 83 | 1018.2 |
| 20260906014357 | 19 | 115 | 6.4 | 8.0 | 0.00 | 0.03 | 0.03 | 83 | 1018.4 |
| 20260906013853 | 19 | 95 | 4.8 | 8.0 | 0.00 | 0.03 | 0.03 | 84 | 1018.4 |
| 20260906013349 | 19 | 103 | 3.2 | 6.4 | 0.00 | 0.03 | 0.03 | 84 | 1018.2 |
| 20260906012844 | 19 | 97 | 4.8 | 8.0 | 0.00 | 0.03 | 0.03 | 84 | 1018.2 |
| 20260906012339 | 20 | 114 | 6.4 | 9.7 | 0.00 | 0.03 | 0.03 | 84 | 1018.1 |
| 20260906011838 | 20 | 98 | 4.8 | 8.0 | 0.00 | 0.03 | 0.03 | 84 | 1018.2 |
| 20260906011333 | 20 | 101 | 6.4 | 8.0 | 0.00 | 0.03 | 0.03 | 85 | 1018.1 |
| 20260906010829 | 20 | 93 | 9.7 | 11.3 | 0.00 | 0.03 | 0.03 | 85 | 1017.9 |
| 20260906010325 | 20 | 115 | 6.4 | 9.7 | 0.00 | 0.03 | 0.03 | 84 | 1018.1 |
| 20260906005821 | 20 | 97 | 6.4 | 6.4 | 0.00 | 0.03 | 0.03 | 85 | 1017.8 |
| 20260906005319 | 20 | 106 | 0.0 | 4.8 | 0.00 | 0.03 | 0.03 | 85 | 1017.9 |
| 20260906004818 | 20 | 82 | 4.8 | 6.4 | 0.00 | 0.03 | 0.03 | 85 | 1018.0 |
| 20260906004318 | 20 | 90 | 4.8 | 6.4 | 0.00 | 0.03 | 0.03 | 85 | 1018.0 |
| 20260906003814 | 20 | 95 | 6.4 | 8.0 | 0.00 | 0.03 | 0.03 | 85 | 1017.7 |
| 20260906003309 | 21 | 87 | 6.4 | 9.7 | 0.00 | 0.03 | 0.03 | 85 | 1018.0 |
| 20260906002805 | 21 | 116 | 4.8 | 9.7 | 0.00 | 0.03 | 0.03 | 84 | 1017.9 |
| 20260906002306 | 21 | 92 | 8.0 | 9.7 | 0.00 | 0.03 | 0.03 | 85 | 1017.8 |
| 20260906001800 | 21 | 98 | 8.0 | 9.7 | 0.00 | 0.03 | 0.03 | 84 | 1017.8 |
| 20260906001254 | 21 | 88 | 8.0 | 8.0 | 0.00 | 0.03 | 0.03 | 84 | 1017.8 |
| 20260906000750 | 21 | 94 | 8.0 | 9.7 | 0.00 | 0.03 | 0.03 | 83 | 1017.9 |
| 20260906000244 | 21 | 93 | 9.7 | 9.7 | 0.00 | 0.03 | 0.03 | 85 | 1017.7 |
| 20260905235739 | 22 | 83 | 1.6 | 4.8 | 0.00 | 0.03 | 0.03 | 85 | 1017.7 |
| 20260905235238 | 22 | 87 | 6.4 | 6.4 | 0.00 | 0.03 | 0.03 | 83 | 1017.8 |
| 20260905234734 | 23 | 24 | 3.2 | 4.8 | 0.00 | 0.03 | 0.03 | 81 | 1017.7 |
| 20260905234229 | 23 | 63 | 3.2 | 6.4 | 0.00 | 0.03 | 0.03 | 80 | 1017.8 |
| 20260905233725 | 23 | 57 | 0.0 | 4.8 | 0.00 | 0.03 | 0.03 | 80 | 1017.9 |
| 20260905233224 | 23 | 90 | 3.2 | 6.4 | 0.00 | 0.03 | 0.03 | 81 | 1017.6 |
| 20260905232719 | 23 | 16 | 3.2 | 4.8 | 0.00 | 0.03 | 0.03 | 81 | 1017.7 |
| 20260905232214 | 23 | 63 | 0.0 | 8.0 | 0.00 | 0.03 | 0.03 | 82 | 1017.9 |
| 20260905231710 | 23 | 85 | 6.4 | 8.0 | 0.00 | 0.03 | 0.03 | 82 | 1018.0 |
| 20260905231206 | 23 | 83 | 1.6 | 9.7 | 0.00 | 0.03 | 0.03 | 81 | 1018.0 |
| 20260905230702 | 23 | 68 | 3.2 | 8.0 | 0.00 | 0.03 | 0.03 | 80 | 1017.8 |
| 20260905230159 | 23 | 61 | 3.2 | 8.0 | 0.00 | 0.03 | 0.03 | 82 | 1018.0 |
| 20260905225659 | 23 | 68 | 3.2 | 8.0 | 0.00 | 0.03 | 0.03 | 84 | 1017.9 |
| 20260905225154 | 22 | 47 | 4.8 | 9.7 | 0.00 | 0.03 | 0.03 | 85 | 1017.6 |
| 20260905224654 | 22 | 48 | 3.2 | 9.7 | 0.00 | 0.03 | 0.03 | 84 | 1017.7 |
| 20260905224148 | 23 | 57 | 8.0 | 12.9 | 0.00 | 0.03 | 0.03 | 81 | 1017.7 |
| 20260905223645 | 23 | 90 | 14.5 | 17.7 | 0.00 | 0.03 | 0.03 | 80 | 1017.5 |
| 20260905223142 | 23 | 118 | 6.4 | 11.3 | 0.00 | 0.03 | 0.03 | 82 | 1017.7 |
| 20260905222637 | 23 | 98 | 6.4 | 8.0 | 0.00 | 0.03 | 0.03 | 85 | 1017.5 |
| 20260905222132 | 23 | 75 | 4.8 | 8.0 | 0.00 | 0.03 | 0.03 | 87 | 1017.5 |
| 20260905221627 | 22 | 84 | 4.8 | 8.0 | 0.00 | 0.03 | 0.03 | 88 | 1017.5 |
| 20260905221124 | 22 | 72 | 4.8 | 8.0 | 0.00 | 0.03 | 0.03 | 88 | 1017.8 |
| 20260905220619 | 22 | 81 | 6.4 | 6.4 | 0.00 | 0.03 | 0.03 | 88 | 1017.8 |
| 20260905220115 | 22 | 77 | 3.2 | 6.4 | 0.00 | 0.03 | 0.03 | 88 | 1017.8 |
| 20260905215614 | 22 | 95 | 6.4 | 12.9 | 0.00 | 0.03 | 0.03 | 88 | 1017.6 |
| 20260905215110 | 22 | 95 | 11.3 | 11.3 | 0.00 | 0.03 | 0.03 | 89 | 1017.8 |
| 20260905214606 | 22 | 88 | 8.0 | 8.0 | 0.00 | 0.03 | 0.03 | 90 | 1017.6 |
| 20260905214106 | 22 | 79 | 6.4 | 8.0 | 0.00 | 0.03 | 0.03 | 90 | 1017.7 |
| 20260905213601 | 22 | 83 | 4.8 | 4.8 | 0.00 | 0.03 | 0.03 | 91 | 1017.9 |
| 20260905213056 | 22 | 90 | 4.8 | 4.8 | 0.00 | 0.03 | 0.03 | 91 | 1017.8 |
| 20260905212551 | 22 | 78 | 3.2 | 6.4 | 0.00 | 0.03 | 0.03 | 90 | 1017.9 |
| 20260905212051 | 22 | 90 | 6.4 | 8.0 | 0.00 | 0.03 | 0.03 | 90 | 1017.7 |
| 20260905211546 | 22 | 68 | 4.8 | 8.0 | 0.00 | 0.03 | 0.03 | 90 | 1017.9 |
| 20260905211042 | 22 | 103 | 4.8 | 6.4 | 0.00 | 0.03 | 0.03 | 89 | 1017.8 |
| 20260905210537 | 22 | 68 | 4.8 | 6.4 | 0.00 | 0.03 | 0.03 | 89 | 1017.9 |
| 20260905210032 | 22 | 78 | 3.2 | 6.4 | 0.00 | 0.03 | 0.03 | 89 | 1017.9 |
| 20260905205531 | 22 | 70 | 4.8 | 9.7 | 0.00 | 0.03 | 0.03 | 89 | 1018.0 |
| 20260905205030 | 22 | 352 | 0.0 | 4.8 | 0.00 | 0.03 | 0.03 | 89 | 1017.7 |
| 20260905204526 | 22 | 99 | 4.8 | 6.4 | 0.00 | 0.03 | 0.03 | 88 | 1017.8 |
| 20260905204021 | 22 | 68 | 3.2 | 6.4 | 0.00 | 0.03 | 0.03 | 87 | 1017.9 |
| 20260905203521 | 22 | 63 | 1.6 | 6.4 | 0.00 | 0.03 | 0.03 | 88 | 1017.7 |
| 20260905203016 | 22 | 98 | 0.0 | 3.2 | 0.00 | 0.03 | 0.03 | 88 | 1017.6 |
| 20260905202511 | 22 | 60 | 1.6 | 6.4 | 0.00 | 0.03 | 0.03 | 88 | 1017.7 |
| 20260905202007 | 22 | 87 | 4.8 | 6.4 | 0.00 | 0.03 | 0.03 | 88 | 1017.6 |
| 20260905201502 | 22 | 71 | 6.4 | 6.4 | 0.00 | 0.03 | 0.03 | 89 | 1017.8 |
| 20260905201001 | 22 | 106 | 6.4 | 6.4 | 0.00 | 0.03 | 0.03 | 89 | 1017.7 |
| 20260905200457 | 22 | 92 | 11.3 | 11.3 | 0.00 | 0.03 | 0.03 | 89 | 1017.8 |
| 20260905195955 | 22 | 94 | 12.9 | 14.5 | 0.00 | 0.03 | 0.03 | 89 | 1017.9 |
| 20260905195451 | 22 | 84 | 9.7 | 11.3 | 0.00 | 0.03 | 0.03 | 90 | 1017.9 |
| 20260905194947 | 22 | 101 | 12.9 | 12.9 | 0.00 | 0.03 | 0.03 | 90 | 1017.8 |
| 20260905194446 | 22 | 110 | 8.0 | 19.3 | 0.00 | 0.03 | 0.03 | 89 | 1017.7 |
| 20260905193940 | 22 | 90 | 8.0 | 12.9 | 0.00 | 0.03 | 0.03 | 89 | 1017.8 |
| 20260905193435 | 22 | 81 | 6.4 | 16.1 | 0.00 | 0.03 | 0.03 | 88 | 1017.9 |
| 20260905192930 | 22 | 60 | 9.7 | 17.7 | 0.00 | 0.03 | 0.03 | 88 | 1017.7 |
| 20260905192425 | 22 | 46 | 8.0 | 14.5 | 0.00 | 0.03 | 0.03 | 88 | 1017.8 |
| 20260905191920 | 22 | 93 | 17.7 | 17.7 | 0.00 | 0.03 | 0.03 | 88 | 1017.6 |
| 20260905191419 | 23 | 101 | 11.3 | 16.1 | 0.00 | 0.03 | 0.03 | 87 | 1017.8 |
| 20260905190914 | 23 | 95 | 6.4 | 14.5 | 0.00 | 0.03 | 0.03 | 88 | 1017.8 |
| 20260905190412 | 23 | 87 | 11.3 | 14.5 | 0.00 | 0.03 | 0.03 | 87 | 1017.7 |
| 20260905185910 | 22 | 67 | 6.4 | 16.1 | 0.00 | 0.03 | 0.03 | 88 | 1017.9 |
| 20260905185406 | 23 | 96 | 4.8 | 12.9 | 0.00 | 0.03 | 0.03 | 88 | 1017.8 |
| 20260905184904 | 23 | 57 | 3.2 | 6.4 | 0.00 | 0.03 | 0.03 | 88 | 1017.8 |
| 20260905184359 | 22 | 82 | 11.3 | 14.5 | 0.00 | 0.03 | 0.03 | 87 | 1017.8 |
| 20260905183857 | 23 | 61 | 4.8 | 9.7 | 0.00 | 0.03 | 0.03 | 86 | 1017.6 |
| 20260905183352 | 23 | 64 | 8.0 | 12.9 | 0.00 | 0.03 | 0.03 | 85 | 1017.9 |
| 20260905182847 | 23 | 81 | 8.0 | 11.3 | 0.00 | 0.03 | 0.03 | 85 | 1017.9 |
| 20260905182342 | 23 | 86 | 4.8 | 8.0 | 0.00 | 0.03 | 0.03 | 86 | 1017.9 |
| 20260905181837 | 23 | 57 | 4.8 | 14.5 | 0.00 | 0.03 | 0.03 | 88 | 1017.7 |
| 20260905181337 | 22 | 90 | 6.4 | 14.5 | 0.00 | 0.03 | 0.03 | 89 | 1017.8 |
| 20260905180836 | 23 | 24 | 3.2 | 12.9 | 0.00 | 0.03 | 0.03 | 89 | 1017.8 |
| 20260905180331 | 23 | 90 | 4.8 | 12.9 | 0.00 | 0.03 | 0.03 | 90 | 1017.8 |
| 20260905175826 | 22 | 81 | 11.3 | 12.9 | 0.00 | 0.03 | 0.03 | 90 | 1017.8 |
| 20260905175326 | 22 | 21 | 4.8 | 16.1 | 0.00 | 0.03 | 0.03 | 90 | 1017.7 |
| 20260905174821 | 22 | 95 | 16.1 | 16.1 | 0.00 | 0.03 | 0.03 | 90 | 1017.8 |
| 20260905174317 | 22 | 85 | 9.7 | 17.7 | 0.00 | 0.03 | 0.03 | 90 | 1017.9 |
| 20260905173812 | 22 | 90 | 6.4 | 12.9 | 0.00 | 0.03 | 0.03 | 90 | 1017.9 |
| 20260905173308 | 22 | 32 | 4.8 | 11.3 | 0.00 | 0.03 | 0.03 | 91 | 1017.8 |
| 20260905172808 | 22 | 76 | 4.8 | 12.9 | 0.00 | 0.03 | 0.03 | 92 | 1017.8 |
| 20260905172306 | 22 | 52 | 6.4 | 14.5 | 0.00 | 0.03 | 0.03 | 92 | 1017.9 |
| 20260905171803 | 22 | 101 | 8.0 | 14.5 | 0.00 | 0.03 | 0.03 | 91 | 1017.9 |
| 20260905171259 | 22 | 82 | 8.0 | 11.3 | 0.00 | 0.03 | 0.03 | 92 | 1017.6 |
| 20260905170755 | 22 | 56 | 8.0 | 12.9 | 0.00 | 0.03 | 0.03 | 93 | 1017.7 |
| 20260905170251 | 22 | 85 | 4.8 | 11.3 | 0.00 | 0.03 | 0.03 | 93 | 1017.9 |
| 20260905165750 | 22 | 52 | 6.4 | 9.7 | 0.00 | 0.03 | 0.03 | 93 | 1017.9 |
| 20260905165246 | 22 | 37 | 3.2 | 8.0 | 0.00 | 0.03 | 0.03 | 93 | 1018.2 |
| 20260905164746 | 21 | 97 | 4.8 | 9.7 | 0.00 | 0.03 | 0.03 | 94 | 1018.2 |
| 20260905164240 | 21 | 87 | 4.8 | 8.0 | 0.00 | 0.03 | 0.03 | 94 | 1018.2 |
| 20260905163736 | 21 | 355 | 4.8 | 11.3 | 0.00 | 0.03 | 0.03 | 94 | 1017.9 |
| 20260905163232 | 21 | 78 | 6.4 | 11.3 | 0.00 | 0.03 | 0.03 | 94 | 1017.9 |
| 20260905162728 | 21 | 90 | 0.0 | 8.0 | 0.00 | 0.03 | 0.03 | 94 | 1018.1 |
| 20260905162227 | 21 | 27 | 4.8 | 11.3 | 0.00 | 0.03 | 0.03 | 94 | 1018.0 |